Location: Canazei
(46.4667°N, 11.7667°E)
Time: 16:47:57
(UTC+00:00)

Cosmos 1707 - Pass Details

Date: 21 April 2021
Orbit: 514 x 530 km, 82.5° (Epoch: 12 May)

Event Time Altitude Azimuth Distance (km) Brightness Sun altitude
Rises 02:56:06 0° 166° (SSE) 2,645 6.1 -13.1°
Reaches altitude 10° 02:58:22 10° 157° (SSE) 1,759 5.3 -12.8°
Maximum altitude 03:01:51 34° 92° (E) 883 4.4 -12.2°
Drops below altitude 10° 03:05:22 10° 27° (NNE) 1,764 6.4 -11.7°
Sets 03:07:38 0° 18° (NNE) 2,655 7.1 -11.4°
